GLONASS-K 2

Last updated on Tue Sep 22 2026 00:03:02 GMT+0000 (Coordinated Universal Time)

1 40315U 14075A 26264.02959660 -.00000017 00000+0 00000+0 0 9994 2 40315 63.6167 187.0563 0021934 209.6386 150.2511 2.13101496 91896
UTC large
Height (km)
Speed (km/s)
/
Latitude / Longitude
Inclination (degrees)
Orbital Period (minutes)
Azimuth
Elevation
Range (km)
Doppler Factor

Next 0 passes for location: London (51.5072 / 0.1276)

No passes found over London.
GLONASS-K 2